Location: Ajisawe
(8.4333°N, 4.3833°E)
Time: 01:58:20
(UTC+00:00)

Courier 1B Rocket - Pass Details

Date: 28 April 2021
Orbit: 920 x 1202 km, 28.3° (Epoch: 13 May)

Event Time Altitude Azimuth Distance (km) Brightness Sun altitude
Rises 01:00:35 0° 275° (W) 3,925 - -59.8°
Reaches altitude 10° 01:03:51 10° 262° (W) 3,010 - -59.3°
Maximum altitude 01:09:47 25° 210° (SSW) 2,145 - -58.3°
Drops below altitude 10° 01:15:56 10° 157° (SSE) 3,117 - -57.2°
Sets 01:19:24 0° 144° (SE) 4,091 - -56.6°
